This is the latest recevied weather packets stored in our database for station/object W6UA-13. If no packets are shown the sender has not sent any weather packets the latest 10 day(s).
| Time | Temp. | Humidity | Pressure | Rain* | Wind** | Luminosity | Snow |
|---|---|---|---|---|---|---|---|
| 1777735186 | 12.22° C | 88% | 1014.6 hPa | 0 mm | - | 91 W/m² | - |
| 1777734286 | 12.22° C | 88% | 1014.5 hPa | 0 mm | - | 53 W/m² | - |
| 1777733386 | 12.22° C | 88% | 1014.4 hPa | 0 mm | - | 54 W/m² | - |
| 1777732486 | 12.22° C | 88% | 1014.3 hPa | 0 mm | - | 30 W/m² | - |
| 1777731586 | 12.22° C | 88% | 1014.2 hPa | 0 mm | - | 28 W/m² | - |
| 1777730686 | 12.22° C | 87% | 1013.9 hPa | 0 mm | - | 19 W/m² | - |
| 1777729786 | 12.22° C | 87% | 1014 hPa | 0 mm | - | 12 W/m² | - |
| 1777728886 | 12.22° C | 87% | 1013.8 hPa | 0 mm | - | 5 W/m² | - |
| 1777727986 | 12.22° C | 87% | 1013.8 hPa | 0 mm | - | 0 W/m² | - |
| 1777726186 | 12.22° C | 86% | 1013.8 hPa | 0 mm | - | 0 W/m² | - |
| 1777725286 | 12.22° C | 86% | 1013.8 hPa | 0 mm | - | 0 W/m² | - |
| 1777724386 | 12.22° C | 85% | 1013.6 hPa | 0 mm | - | 0 W/m² | - |
| 1777723486 | 12.22° C | 85% | 1013.3 hPa | 0 mm | - | 0 W/m² | - |
| 1777721686 | 12.22° C | 85% | 1013.4 hPa | 0 mm | - | 0 W/m² | - |
| 1777720786 | 12.22° C | 85% | 1013.3 hPa | 0 mm | - | 0 W/m² | - |
| 1777719886 | 12.22° C | 85% | 1013.5 hPa | 0 mm | - | 0 W/m² | - |
| 1777718986 | 12.22° C | 85% | 1013.4 hPa | 0 mm | - | 0 W/m² | - |
| 1777718086 | 12.22° C | 85% | 1013.3 hPa | 0 mm | - | 0 W/m² | - |
| 1777717186 | 12.22° C | 85% | 1013.2 hPa | 0 mm | - | 0 W/m² | - |
| 1777716286 | 12.22° C | 84% | 1013.2 hPa | 0 mm | - | 0 W/m² | - |
| 1777715386 | 12.22° C | 84% | 1013.3 hPa | 0 mm | - | 0 W/m² | - |
| 1777714486 | 12.78° C | 84% | 1013.4 hPa | 0 mm | - | 0 W/m² | - |
| 1777713586 | 12.78° C | 84% | 1013.4 hPa | 0 mm | - | 0 W/m² | - |
| 1777712686 | 12.78° C | 84% | 1013.7 hPa | 0 mm | - | 0 W/m² | - |
| 1777711787 | 12.78° C | 84% | 1013.8 hPa | 0 mm | - | 0 W/m² | - |
* Rain latest hour (hover to see other rain measurements)
** Current wind speed in m/s (hover to see current wind gust speed)